Location: Campavaglio
(41.1333°N, 9.2333°E)
Time: 21:00:08
(UTC+00:00)

STARLINK-1364 - Pass Details

Date: 07 June 2020
Orbit: 379 x 380 km, 53.0° (Epoch: 04 July)

Event Time Altitude Azimuth Distance (km) Brightness Sun altitude
Rises 03:09:35 0° 309° (NW) 2,256 6.6 -7.1°
Reaches altitude 10° 03:11:39 10° 311° (NW) 1,400 5.6 -6.8°
Maximum altitude 03:14:47 79° 38° (NE) 392 3.0 -6.4°
Drops below altitude 10° 03:17:53 10° 125° (SE) 1,392 5.9 -5.9°
Sets 03:19:56 0° 127° (SE) 2,241 7.0 -5.6°
